Погода в Наташино

Россия / Республика Крым     45°24′28″N   33°16′17″E
темп.,
°C
ветер,
м/с
пор.,
м/с
влажн.,
%
обл.,
%
осадки,
мм/ч
давл.,
гПа
погр.,
м
22 октября, пт
пт2200:00+14ююз915785 0.0 1017551
03:00+14ююз814785 0.0 1016503
06:00+14ююз713840 0.0 1016431
09:00+16ююз711774 0.0 1016679
12:00+18юз89623 0.0 1017773
15:00+19юз67589 0.0 1016758
18:00+15ююз5885100 0.0 1017254
21:00+14ююз4991100 0.0 1017228
23 октября, сб
сб2300:00+14ююз4892100 0.0 1017217
03:00+14ююз4894100 0.0 1017202
06:00+14ююз4894100 0.0 1017183
09:00+16ююз5882100 0.0 1017395
12:00+18зюз5665100 0.0 1017695
15:00+19зсз445774 0.0 1017952
18:00+15ссз6115868 0.0 1018352
21:00+14с495896 0.0 1020423
24 октября, вс
вс2400:00+13с475042 0.0 1021247
03:00+10с37575 0.0 1022123
06:00+9ссв4762100 0.0 1022141
09:00+11с4648100 0.0 1024294
12:00+12ссз6739100 0.0 1025921
15:00+12ссз6739100 0.0 10251392
18:00+10сз484611 0.0 1025183
21:00+9ссз49515 0.0 1027207
25 октября, пн
пн2500:00+7ссз59635 0.0 1029272
03:00+7ссз595891 0.0 1029716
06:00+6ссз485494 0.0 1030559
09:00+6с67525 0.0 1032890
12:00+8ссв55422 0.0 10321149
15:00+9с55350 0.0 10321198
18:00+7ссв33410 0.0 103339
21:00+5всв34460 0.0 103366
26 октября, вт
вт2600:00+4всв35500 0.0 103380
03:00+3всв34550 0.0 103366
06:00+2всв46630 0.0 103393
09:00+5всв58560 0.0 1033303
12:00+11в67410 0.0 10311033
15:00+12в56340 0.0 10291266
18:00+8в59530 0.0 1029301
21:00+5всв511690 0.0 1028310